Weather History for Huntingburg, IN

Change the Weather History Date:

Wednesday, May 7, 2014

  Actual Average Record
Temperature  
Mean Temperature 72 °F -  
Max Temperature 82 °F 71 °F 84 °F (2004)
Min Temperature 62 °F 52 °F 44 °F (1997)
Cooling Degree Days 7    
Growing Degree Days 22 (Base 50)    
Moisture  
Dew Point 54 °F    
Average Humidity 52    
Maximum Humidity 64    
Minimum Humidity 37    
Precipitation  
Precipitation 0.00 in - - ()
Sea Level Pressure  
Sea Level Pressure 29.92 in    
Wind  
Wind Speed 10 mph (SSW)    
Max Wind Speed 22 mph    
Max Gust Speed 31 mph    
Visibility 10 miles    
Events      
Averages and records for this station are not official NWS values.
T = Trace of Precipitation, MM = Missing Value Source: NWS Daily Summary

Daily Weather History Graph

Daily Weather History Graph

Search for Another Location

Airport:

Trip Planner

Search our weather history database for the weather conditions in past years. The results will help you decide how hot, cold, wet, or windy it might be!

Date:

Astronomy

May. 07, 2014 Rise Set
Actual Time 6:44 AM EDT 8:44 PM EDT
Civil Twilight 6:15 AM EDT 9:13 PM EDT
Nautical Twilight 5:40 AM EDT 9:49 PM EDT
Astronomical Twilight 5:02 AM EDT 10:27 PM EDT
Moon 1:55 PM EDT (5/7) 2:37 AM EDT (5/7)
Length of Visible Light 14h 58m
Length of Day
14h 00m
First Quarter, 55% of the Moon is Illuminated
May 7
First Quarter
May 14
Full
May 21
Last Quarter
May 28
New
Jun 5
First Quarter

Hourly Weather History & Observations

Time (EDT) Temp. Heat Index Dew Point Humidity Pressure Visibility Wind Dir Wind Speed Gust Speed Precip Events Conditions
12:15 AM 69.8 °F - 48.2 °F 46% 29.87 in 10.0 mi SSW 8.1 mph - N/A   Clear
12:35 AM 68.0 °F - 48.2 °F 49% 29.87 in 10.0 mi SSW 6.9 mph - N/A   Clear
12:55 AM 69.8 °F - 48.2 °F 46% 29.87 in 10.0 mi SSW 5.8 mph - N/A   Clear
1:15 AM 69.8 °F - 48.2 °F 46% 29.88 in 10.0 mi SSW 8.1 mph - N/A   Clear
1:35 AM 66.2 °F - 48.2 °F 52% 29.88 in 10.0 mi SSW 9.2 mph - N/A   Clear
1:55 AM 66.2 °F - 48.2 °F 52% 29.89 in 10.0 mi SSW 8.1 mph - N/A   Clear
2:15 AM 66.2 °F - 48.2 °F 52% 29.89 in 10.0 mi SW 8.1 mph - N/A   Clear
2:35 AM 66.2 °F - 48.2 °F 52% 29.88 in 10.0 mi SSW 6.9 mph - N/A   Clear
2:55 AM 66.2 °F - 48.2 °F 52% 29.88 in 10.0 mi South 4.6 mph - N/A   Clear
3:15 AM 66.2 °F - 48.2 °F 52% 29.88 in 10.0 mi South 5.8 mph - N/A   Clear
3:35 AM 64.4 °F - 48.2 °F 56% 29.88 in 10.0 mi SSW 6.9 mph - N/A   Clear
3:55 AM 64.4 °F - 48.2 °F 56% 29.89 in 10.0 mi SSW 6.9 mph - N/A   Clear
4:15 AM 64.4 °F - 48.2 °F 56% 29.89 in 10.0 mi South 5.8 mph - N/A   Clear
4:35 AM 64.4 °F - 48.2 °F 56% 29.89 in 10.0 mi South 6.9 mph - N/A   Clear
4:55 AM 64.4 °F - 50.0 °F 59% 29.90 in 10.0 mi South 6.9 mph - N/A   Clear
5:15 AM 64.4 °F - 50.0 °F 59% 29.91 in 10.0 mi SSW 8.1 mph - N/A   Clear
5:35 AM 62.6 °F - 50.0 °F 63% 29.91 in 10.0 mi South 5.8 mph - N/A   Clear
5:55 AM 62.6 °F - 50.0 °F 63% 29.91 in 10.0 mi South 5.8 mph - N/A   Clear
6:15 AM 62.6 °F - 50.0 °F 63% 29.91 in 10.0 mi SSW 8.1 mph - N/A   Clear
6:35 AM 62.6 °F - 50.0 °F 63% 29.92 in 10.0 mi SSW 8.1 mph - N/A   Clear
6:55 AM 62.6 °F - 50.0 °F 63% 29.92 in 10.0 mi SSW 9.2 mph - N/A   Clear
7:15 AM 62.6 °F - 50.0 °F 63% 29.92 in 10.0 mi South 8.1 mph - N/A   Clear
7:35 AM 64.4 °F - 51.8 °F 64% 29.93 in 10.0 mi South 6.9 mph - N/A   Clear
7:55 AM 64.4 °F - 51.8 °F 64% 29.94 in 10.0 mi SSW 9.2 mph - N/A   Clear
8:15 AM 66.2 °F - 53.6 °F 64% 29.94 in 10.0 mi SSW 11.5 mph - N/A   Clear
8:35 AM 66.2 °F - 53.6 °F 64% 29.95 in 10.0 mi SSW 11.5 mph - N/A   Clear
8:55 AM 69.8 °F - 55.4 °F 60% 29.96 in 10.0 mi SSW 9.2 mph - N/A   Clear
9:15 AM 69.8 °F - 55.4 °F 60% 29.96 in 10.0 mi SSW 11.5 mph 16.1 mph N/A   Clear
9:35 AM 71.6 °F - 55.4 °F 57% 29.96 in 10.0 mi SW 12.7 mph 18.4 mph N/A   Clear
9:55 AM 71.6 °F - 57.2 °F 60% 29.97 in 10.0 mi SW 16.1 mph 21.9 mph N/A   Clear
10:15 AM 73.4 °F - 57.2 °F 57% 29.97 in 10.0 mi SW 18.4 mph 24.2 mph N/A   Clear
10:35 AM 73.4 °F - 57.2 °F 57% 29.97 in 10.0 mi SW 11.5 mph 19.6 mph N/A   Clear
10:55 AM 73.4 °F - 57.2 °F 57% 29.97 in 10.0 mi SW 15.0 mph 23.0 mph N/A   Clear
11:15 AM 75.2 °F - 59.0 °F 57% 29.96 in 10.0 mi SW 19.6 mph 25.3 mph N/A   Clear
11:35 AM 75.2 °F - 59.0 °F 57% 29.96 in 10.0 mi SW 16.1 mph 24.2 mph N/A   Clear
11:55 AM 77.0 °F - 60.8 °F 57% 29.95 in 10.0 mi SW 17.3 mph - N/A   Clear
12:15 PM 77.0 °F - 59.0 °F 54% 29.96 in 10.0 mi SW 19.6 mph 25.3 mph N/A   Clear
12:35 PM 78.8 °F - 59.0 °F 51% 29.96 in 10.0 mi SW 21.9 mph 31.1 mph N/A   Clear
1:15 PM 78.8 °F - 59.0 °F 51% 29.96 in 10.0 mi SSW 18.4 mph 25.3 mph N/A   Clear
1:35 PM 78.8 °F - 59.0 °F 51% 29.95 in 10.0 mi SW 18.4 mph 27.6 mph N/A   Clear
1:55 PM 80.6 °F 81.1 °F 59.0 °F 48% 29.94 in 10.0 mi SSW 18.4 mph 25.3 mph N/A   Clear
2:15 PM 80.6 °F 81.5 °F 60.8 °F 51% 29.94 in 10.0 mi SSW 16.1 mph 20.7 mph N/A   Clear
2:35 PM 80.6 °F 81.1 °F 59.0 °F 48% 29.94 in 10.0 mi SSW 18.4 mph 26.5 mph N/A   Clear
2:55 PM 82.4 °F 82.5 °F 59.0 °F 45% 29.93 in 10.0 mi SSW 20.7 mph 25.3 mph N/A   Clear
3:15 PM 82.4 °F 82.0 °F 57.2 °F 42% 29.92 in 10.0 mi SSW 19.6 mph 25.3 mph N/A   Clear
3:35 PM 82.4 °F 81.7 °F 55.4 °F 39% 29.92 in 10.0 mi SW 16.1 mph 26.5 mph N/A   Clear
3:55 PM 82.4 °F 81.7 °F 55.4 °F 39% 29.92 in 10.0 mi SW 17.3 mph - N/A   Clear
4:15 PM 82.4 °F 81.7 °F 55.4 °F 39% 29.91 in 10.0 mi SSW 21.9 mph 27.6 mph N/A   Clear
4:35 PM 82.4 °F 81.7 °F 55.4 °F 39% 29.91 in 10.0 mi SSW 13.8 mph 24.2 mph N/A   Clear
4:55 PM 82.4 °F 81.7 °F 55.4 °F 39% 29.91 in 10.0 mi SSW 18.4 mph 25.3 mph N/A   Clear
5:15 PM 80.6 °F 80.5 °F 55.4 °F 42% 29.91 in 10.0 mi SSW 13.8 mph 24.2 mph N/A   Clear
5:35 PM 82.4 °F 81.7 °F 55.4 °F 39% 29.91 in 10.0 mi SW 16.1 mph 24.2 mph N/A   Clear
5:55 PM 82.4 °F 81.7 °F 55.4 °F 39% 29.91 in 10.0 mi SW 17.3 mph 25.3 mph N/A   Clear
6:15 PM 82.4 °F 81.7 °F 55.4 °F 39% 29.91 in 10.0 mi SW 12.7 mph 18.4 mph N/A   Clear
6:35 PM 82.4 °F 81.7 °F 55.4 °F 39% 29.90 in 10.0 mi SSW 16.1 mph 21.9 mph N/A   Clear
6:55 PM 82.4 °F 81.4 °F 53.6 °F 37% 29.90 in 10.0 mi SSW 20.7 mph - N/A   Clear
7:15 PM 80.6 °F 80.5 °F 55.4 °F 42% 29.89 in 10.0 mi SSW 19.6 mph 24.2 mph N/A   Clear
7:35 PM 80.6 °F 80.3 °F 53.6 °F 39% 29.89 in 10.0 mi SSW 17.3 mph 23.0 mph N/A   Clear
7:55 PM 80.6 °F 80.3 °F 53.6 °F 39% 29.90 in 10.0 mi SW 10.4 mph - N/A   Clear
8:15 PM 78.8 °F - 53.6 °F 42% 29.91 in 10.0 mi SSW 10.4 mph - N/A   Clear
8:35 PM 78.8 °F - 53.6 °F 42% 29.92 in 10.0 mi SW 8.1 mph - N/A   Clear
8:55 PM 75.2 °F - 53.6 °F 47% 29.92 in 10.0 mi SW 8.1 mph - N/A   Clear
9:15 PM 73.4 °F - 53.6 °F 50% 29.93 in 10.0 mi SSW 6.9 mph - N/A   Clear
9:35 PM 73.4 °F - 53.6 °F 50% 29.93 in 10.0 mi South 4.6 mph - N/A   Clear
9:55 PM 73.4 °F - 53.6 °F 50% 29.94 in 10.0 mi SSW 5.8 mph - N/A   Clear
10:15 PM 71.6 °F - 53.6 °F 53% 29.94 in 10.0 mi SSW 6.9 mph - N/A   Clear
10:35 PM 69.8 °F - 53.6 °F 56% 29.95 in 10.0 mi SSW 6.9 mph - N/A   Clear
10:55 PM 69.8 °F - 53.6 °F 56% 29.95 in 10.0 mi SSW 6.9 mph - N/A   Clear
11:15 PM 69.8 °F - 53.6 °F 56% 29.96 in 10.0 mi SSW 8.1 mph - N/A   Clear
11:35 PM 69.8 °F - 53.6 °F 56% 29.96 in 10.0 mi SSW 9.2 mph - N/A   Clear
11:55 PM 69.8 °F - 53.6 °F 56% 29.97 in 10.0 mi SSW 8.1 mph - N/A   Clear